Weather History for Lihue, HI

Change the Weather History Date:

Tuesday, December 4, 2012

  Actual Average Record
Temperature  
Mean Temperature 75 °F 74 °F  
Max Temperature 81 °F 79 °F 84 °F (1995)
Min Temperature 68 °F 69 °F 57 °F (1956)
Degree Days  
Heating Degree Days 0 0  
Month to date heating degree days 0 0  
Since 1 July heating degree days 0 0  
Cooling Degree Days 10 9  
Month to date cooling degree days 43 36  
Year to date cooling degree days 3884 3727  
Growing Degree Days 24 (Base 50)    
Moisture  
Dew Point 67 °F    
Average Humidity 76    
Maximum Humidity 90    
Minimum Humidity 62    
Precipitation  
Precipitation 2.85 in 0.16 in 5.28 in (1960)
Month to date precipitation 3.14 0.63  
Year to date precipitation 39.95 32.48  
Snow  
Snow 0.00 in - - ()
Month to date snowfall 0.0  
Since 1 July snowfall 0.0  
Snow Depth 0.00 in    
Sea Level Pressure  
Sea Level Pressure 30.01 in    
Wind  
Wind Speed 5 mph (NNW)    
Max Wind Speed 16 mph    
Max Gust Speed 18 mph    
Visibility 8 miles    
Events Rain , Thunderstorm    
T = Trace of Precipitation, MM = Missing Value Source: NWS Daily Summary

Daily Weather History Graph

Daily Weather History Graph

Search for Another Location

Airport:

Trip Planner

Search our weather history database for the weather conditions in past years. The results will help you decide how hot, cold, wet, or windy it might be!

Date:

Astronomy

Dec. 04, 2012 Rise Set
Actual Time 7:02 AM HST 5:53 PM HST
Civil Twilight 6:37 AM HST 6:17 PM HST
Nautical Twilight 6:10 AM HST 6:45 PM HST
Astronomical Twilight 5:42 AM HST 7:12 PM HST
Moon 11:24 PM HST (12/4) 11:27 AM HST (12/4)
Length of Visible Light 11h 39m
Length of Day
10h 51m
Waning Gibbous, 67% of the Moon is Illuminated
Dec 4
Waning Gibbous
Dec 6
Last Quarter
Dec 12
New
Dec 19
First Quarter
Dec 28
Full

Hourly Weather History & Observations

Time (HST) Temp. Heat Index Dew Point Humidity Pressure Visibility Wind Dir Wind Speed Gust Speed Precip Events Conditions
12:53 AM 71.1 °F - 66.9 °F 87% 29.97 in 10.0 mi WNW 3.5 mph - N/A   Partly Cloudy
1:53 AM 70.0 °F - 66.0 °F 87% 29.96 in 10.0 mi West 4.6 mph - N/A   Clear
2:53 AM 70.0 °F - 66.0 °F 87% 29.95 in 10.0 mi West 6.9 mph - N/A   Clear
3:53 AM 70.0 °F - 66.0 °F 87% 29.95 in 10.0 mi West 4.6 mph - N/A   Clear
4:53 AM 68.0 °F - 64.9 °F 90% 29.95 in 10.0 mi Calm Calm - N/A   Clear
5:53 AM 68.0 °F - 64.0 °F 87% 29.97 in 10.0 mi West 4.6 mph - N/A   Clear
6:53 AM 68.0 °F - 64.0 °F 87% 30.00 in 10.0 mi WNW 5.8 mph - N/A   Clear
7:53 AM 70.0 °F - 64.0 °F 81% 30.01 in 10.0 mi West 4.6 mph - N/A   Clear
8:53 AM 75.0 °F - 64.9 °F 71% 30.04 in 10.0 mi West 5.8 mph - N/A   Mostly Cloudy
9:53 AM 78.1 °F - 66.9 °F 68% 30.04 in 10.0 mi WNW 3.5 mph - N/A   Mostly Cloudy
10:53 AM 79.0 °F - 66.9 °F 66% 30.04 in 10.0 mi NE 4.6 mph - N/A   Mostly Cloudy
11:53 AM 79.0 °F - 68.0 °F 69% 30.02 in 10.0 mi ESE 4.6 mph - N/A   Mostly Cloudy
12:53 PM 81.0 °F 83.0 °F 66.0 °F 60% 29.99 in 10.0 mi East 5.8 mph - N/A   Scattered Clouds
1:53 PM 79.0 °F - 66.9 °F 66% 29.97 in 10.0 mi ESE 8.1 mph - N/A   Mostly Cloudy
2:53 PM 79.0 °F - 68.0 °F 69% 29.96 in 10.0 mi SE 6.9 mph - N/A   Mostly Cloudy
3:19 PM 78.8 °F - 69.8 °F 74% 29.97 in 10.0 mi ESE 8.1 mph - N/A   Overcast
3:53 PM 78.1 °F - 69.1 °F 74% 29.96 in 10.0 mi East 9.2 mph - N/A   Overcast
4:53 PM 77.0 °F - 70.0 °F 79% 29.97 in 10.0 mi East 3.5 mph - N/A   Overcast
5:08 PM 75.2 °F - 71.6 °F 89% 29.98 in 8.0 mi Calm Calm - 0.00 in Rain Light Rain
5:53 PM 75.9 °F - 71.1 °F 85% 29.98 in 10.0 mi NW 4.6 mph - 0.00 in   Overcast
6:11 PM 75.2 °F - 71.6 °F 89% 29.98 in 10.0 mi North 4.6 mph - 0.00 in Rain , Thunderstorm Light Thunderstorms and Rain
6:53 PM 75.0 °F - 70.0 °F 84% 29.99 in 6.0 mi WNW 4.6 mph - 0.01 in Rain , Thunderstorm Thunderstorms and Rain
7:46 PM 73.4 °F - 69.8 °F 88% 30.01 in 2.0 mi ENE 6.9 mph - 0.72 in Rain , Thunderstorm Heavy Thunderstorms and Rain
7:53 PM 73.0 °F - 70.0 °F 90% 30.02 in 2.0 mi ENE 5.8 mph - 0.81 in Rain , Thunderstorm Heavy Thunderstorms and Rain
8:00 PM 71.6 °F - 69.8 °F 94% 30.03 in 3.0 mi ENE 4.6 mph - 0.06 in Rain , Thunderstorm Heavy Thunderstorms and Rain
8:27 PM 71.6 °F - 69.8 °F 94% 30.04 in 1.8 mi NNE 5.8 mph - 0.42 in Rain , Thunderstorm Heavy Thunderstorms and Rain
8:53 PM 69.1 °F - 66.0 °F 90% 30.06 in 1.5 mi West 11.5 mph - 1.03 in Rain , Thunderstorm Heavy Thunderstorms and Rain
9:00 PM 69.8 °F - 66.2 °F 88% 30.07 in 1.2 mi NW 5.8 mph - 0.25 in Rain , Thunderstorm Heavy Thunderstorms and Rain
9:19 PM 69.8 °F - 66.2 °F 88% 30.07 in 2.5 mi North 6.9 mph - 0.61 in Rain Heavy Rain
9:26 PM 69.8 °F - 66.2 °F 88% 30.07 in 2.5 mi NNW 12.7 mph - 0.74 in Rain , Thunderstorm Heavy Thunderstorms and Rain
9:36 PM 69.8 °F - 66.2 °F 88% 30.07 in 5.0 mi WNW 8.1 mph - 0.82 in Rain , Thunderstorm Heavy Thunderstorms and Rain
9:53 PM 70.0 °F - 66.9 °F 90% 30.08 in 10.0 mi North 6.9 mph - 0.85 in Rain , Thunderstorm Light Thunderstorms and Rain
10:53 PM 70.0 °F - 66.9 °F 90% 30.09 in 10.0 mi NNW 4.6 mph - 0.10 in Rain Light Rain
11:00 PM 69.8 °F - 66.2 °F 88% 30.10 in 10.0 mi NW 3.5 mph - 0.01 in Rain Light Rain
11:13 PM 69.8 °F - 66.2 °F 88% 30.10 in 10.0 mi NW 3.5 mph - 0.02 in Rain Light Rain
11:53 PM 70.0 °F - 66.9 °F 90% 30.08 in 10.0 mi WNW 3.5 mph - 0.05 in Rain Light Rain